Hourly Weather Punakha

Today, 30 October, Friday

Time Temperature Precipitation Wind Pressure Humidity
00:00 +10°C° 0 mm 2 mps 587 mmHg 52%
01:00 +10°C° 0 mm 2 mps 587 mmHg 49%
02:00 +10°C° 0 mm 2 mps 587 mmHg 47%
03:00 +10°C° 0 mm 2 mps 586 mmHg 45%
04:00 +10°C° 0 mm 2 mps 586 mmHg 42%
05:00 +9°C° 0 mm 2 mps 587 mmHg 40%
06:00 +9°C° 0 mm 2 mps 587 mmHg 38%
07:00 +13°C° 0 mm 2 mps 588 mmHg 34%
08:00 +16°C° 0 mm 2 mps 590 mmHg 30%
09:00 +20°C° 0 mm 1 mps 591 mmHg 26%
10:00 +21°C° 0 mm 2 mps 591 mmHg 25%
11:00 +23°C° 0 mm 2 mps 591 mmHg 24%
12:00 +24°C° 0 mm 3 mps 591 mmHg 24%
13:00 +24°C° 0 mm 2 mps 590 mmHg 25%
14:00 +24°C° 0 mm 2 mps 590 mmHg 25%
15:00 +23°C° 0 mm 2 mps 589 mmHg 26%
16:00 +19°C° 0 mm 2 mps 588 mmHg 35%
17:00 +16°C° 0 mm 2 mps 587 mmHg 45%
18:00 +13°C° 0 mm 2 mps 586 mmHg 54%
19:00 +13°C° 0 mm 2 mps 586 mmHg 54%
20:00 +12°C° 0 mm 2 mps 587 mmHg 55%
21:00 +12°C° 0 mm 2 mps 587 mmHg 55%
22:00 +12°C° 0 mm 2 mps 587 mmHg 55%
23:00 +12°C° 0 mm 2 mps 587 mmHg 54%

Tomorrow, 31 October, Saturday

Time Temperature Precipitation Wind Pressure Humidity
00:00 +10°C° 0 mm 2 mps 587 mmHg 54%
01:00 +10°C° 0 mm 2 mps 587 mmHg 53%
02:00 +10°C° 0 mm 2 mps 587 mmHg 53%
03:00 +10°C° 0 mm 2 mps 586 mmHg 52%
04:00 +10°C° 0 mm 2 mps 587 mmHg 50%
05:00 +10°C° 0 mm 2 mps 587 mmHg 49%
06:00 +10°C° 0 mm 2 mps 587 mmHg 47%
07:00 +14°C° 0 mm 2 mps 588 mmHg 41%
08:00 +17°C° 0 mm 2 mps 590 mmHg 35%
09:00 +21°C° 0 mm 1 mps 591 mmHg 30%
10:00 +21°C° 0 mm 2 mps 591 mmHg 28%
11:00 +23°C° 0 mm 2 mps 591 mmHg 26%
12:00 +24°C° 0 mm 3 mps 591 mmHg 24%
13:00 +24°C° 0 mm 3 mps 590 mmHg 26%
14:00 +24°C° 0 mm 3 mps 589 mmHg 27%
15:00 +22°C° 0 mm 3 mps 589 mmHg 29%
16:00 +19°C° 0 mm 2 mps 588 mmHg 43%
17:00 +16°C° 0 mm 2 mps 587 mmHg 56%
18:00 +13°C° 0 mm 1 mps 586 mmHg 70%
19:00 +13°C° 0 mm 2 mps 586 mmHg 68%
20:00 +13°C° 0 mm 2 mps 587 mmHg 66%
21:00 +13°C° 0 mm 2 mps 588 mmHg 65%
22:00 +13°C° 0 mm 2 mps 587 mmHg 66%
23:00 +12°C° 0 mm 2 mps 587 mmHg 67%

Day after tomorrow, 1 November, Sunday

Time Temperature Precipitation Wind Pressure Humidity
00:00 +12°C° 0 mm 2 mps 587 mmHg 68%
01:00 +12°C° 0 mm 2 mps 587 mmHg 66%
02:00 +12°C° 0 mm 2 mps 587 mmHg 65%
03:00 +12°C° 0 mm 2 mps 586 mmHg 64%
04:00 +10°C° 0 mm 2 mps 586 mmHg 62%
05:00 +10°C° 0 mm 2 mps 586 mmHg 60%
06:00 +10°C° 0 mm 2 mps 586 mmHg 58%
07:00 +14°C° 0 mm 2 mps 588 mmHg 51%
08:00 +17°C° 0 mm 2 mps 589 mmHg 45%
09:00 +21°C° 0 mm 1 mps 591 mmHg 38%
10:00 +21°C° 0 mm 2 mps 590 mmHg 36%
11:00 +23°C° 0 mm 2 mps 590 mmHg 35%
12:00 +24°C° 0 mm 3 mps 590 mmHg 34%
13:00 +22°C° 0 mm 3 mps 589 mmHg 36%
14:00 +22°C° 0 mm 3 mps 589 mmHg 39%
15:00 +22°C° 0 mm 3 mps 588 mmHg 42%
16:00 +19°C° 0 mm 2 mps 587 mmHg 57%
17:00 +16°C° 0 mm 2 mps 586 mmHg 71%
18:00 +13°C° 0 mm 1 mps 585 mmHg 85%
19:00 +13°C° 0 mm 1 mps 585 mmHg 83%
20:00 +13°C° 0 mm 1 mps 586 mmHg 80%
21:00 +13°C° 0 mm 1 mps 586 mmHg 78%
22:00 +12°C° 0 mm 2 mps 586 mmHg 76%
23:00 +12°C° 0 mm 2 mps 586 mmHg 75%

2 November, Monday

Time Temperature Precipitation Wind Pressure Humidity
00:00 +12°C° 0 mm 2 mps 586 mmHg 74%
01:00 +12°C° 0 mm 2 mps 586 mmHg 72%
02:00 +12°C° 0 mm 2 mps 586 mmHg 71%
03:00 +12°C° 0 mm 2 mps 586 mmHg 70%
04:00 +10°C° 0 mm 2 mps 586 mmHg 67%
05:00 +10°C° 0 mm 2 mps 586 mmHg 65%
06:00 +10°C° 0 mm 2 mps 586 mmHg 63%
07:00 +14°C° 0 mm 2 mps 587 mmHg 57%
08:00 +16°C° 0 mm 1 mps 588 mmHg 50%
09:00 +20°C° 0 mm 1 mps 590 mmHg 44%
10:00 +20°C° 0 mm 2 mps 590 mmHg 42%
11:00 +21°C° 0 mm 2 mps 589 mmHg 41%
12:00 +22°C° 0 mm 3 mps 589 mmHg 40%
13:00 +22°C° 0 mm 3 mps 588 mmHg 42%
14:00 +21°C° 0 mm 3 mps 588 mmHg 45%
15:00 +21°C° 0 mm 3 mps 587 mmHg 47%
16:00 +18°C° 0 mm 2 mps 586 mmHg 62%
17:00 +16°C° 0 mm 1 mps 586 mmHg 78%
18:00 +13°C° 0 mm 1 mps 585 mmHg 93%
19:00 +13°C° 0 mm 1 mps 585 mmHg 92%
20:00 +12°C° 0 mm 1 mps 585 mmHg 90%
21:00 +12°C° 0 mm 1 mps 586 mmHg 89%
22:00 +12°C° 0 mm 1 mps 586 mmHg 87%
23:00 +12°C° 0 mm 1 mps 586 mmHg 85%

3 November, Tuesday

Time Temperature Precipitation Wind Pressure Humidity
00:00 +12°C° 0 mm 1 mps 586 mmHg 83%
01:00 +11°C° 0 mm 1 mps 585 mmHg 82%
02:00 +11°C° 0 mm 1 mps 585 mmHg 81%
03:00 +11°C° 0 mm 1 mps 585 mmHg 80%
04:00 +11°C° 0 mm 1 mps 585 mmHg 78%
05:00 +10°C° 0 mm 1 mps 585 mmHg 76%
06:00 +10°C° 0 mm 1 mps 585 mmHg 74%
07:00 +13°C° 0 mm 1 mps 586 mmHg 67%
08:00 +15°C° 0 mm 1 mps 587 mmHg 59%
09:00 +19°C° 0 mm 1 mps 589 mmHg 52%
10:00 +19°C° 0 mm 2 mps 589 mmHg 48%
11:00 +20°C° 0 mm 2 mps 589 mmHg 44%
12:00 +22°C° 0 mm 3 mps 589 mmHg 40%
13:00 +21°C° 0 mm 3 mps 588 mmHg 43%
14:00 +21°C° 0 mm 3 mps 587 mmHg 46%
15:00 +20°C° 0 mm 3 mps 587 mmHg 49%
16:00 +18°C° 0.1 mm 2 mps 586 mmHg 63%
17:00 +15°C° 0.1 mm 1 mps 585 mmHg 78%
18:00 +13°C° 0.1 mm 1 mps 584 mmHg 93%
19:00 +12°C° 0 mm 1 mps 584 mmHg 90%
20:00 +12°C° 0 mm 1 mps 585 mmHg 87%
21:00 +12°C° 0 mm 1 mps 585 mmHg 85%
22:00 +11°C° 0 mm 1 mps 585 mmHg 82%
23:00 +11°C° 0 mm 1 mps 585 mmHg 80%

4 November, Wednesday

Time Temperature Precipitation Wind Pressure Humidity
00:00 +11°C° 0 mm 1 mps 585 mmHg 77%
01:00 +10°C° 0 mm 1 mps 584 mmHg 73%
02:00 +10°C° 0 mm 1 mps 584 mmHg 69%
03:00 +9°C° 0 mm 2 mps 584 mmHg 65%
04:00 +8°C° 0 mm 2 mps 584 mmHg 63%
05:00 +8°C° 0 mm 2 mps 584 mmHg 61%
06:00 +8°C° 0 mm 2 mps 584 mmHg 58%
07:00 +12°C° 0 mm 2 mps 585 mmHg 53%
08:00 +14°C° 0 mm 2 mps 587 mmHg 47%
09:00 +18°C° 0 mm 1 mps 588 mmHg 41%
10:00 +18°C° 0 mm 2 mps 588 mmHg 36%
11:00 +19°C° 0 mm 3 mps 588 mmHg 31%
12:00 +20°C° 0 mm 3 mps 588 mmHg 26%
13:00 +20°C° 0 mm 3 mps 587 mmHg 29%
14:00 +20°C° 0 mm 3 mps 586 mmHg 33%
15:00 +19°C° 0 mm 3 mps 586 mmHg 37%
16:00 +16°C° 0 mm 2 mps 585 mmHg 53%
17:00 +14°C° 0 mm 2 mps 584 mmHg 69%
18:00 +11°C° 0 mm 1 mps 583 mmHg 85%
19:00 +11°C° 0 mm 1 mps 583 mmHg 83%
20:00 +10°C° 0 mm 1 mps 583 mmHg 81%
21:00 +9°C° 0 mm 2 mps 584 mmHg 79%
22:00 +9°C° 0 mm 2 mps 584 mmHg 76%
23:00 +8°C° 0 mm 2 mps 583 mmHg 73%
Show more

We Need Your Consent

Meteoprog and our Service Providers may store and access personal data such as cookies, device identifiers or other similar technologies on your device and process such data to personalise content and ads, as well as provide social media features and to analyse the traffic.

  • Store and/or access information on your device

    Cookies, device identifiers or other information can be stored or accessed on your device for the purposes indicated above.

  • Personalised ads and content, ad and content measurement, audience insights, and products development

    Ads and content can be personalised based on a profile. More data can be added to better personalise ads and content. Ad and content performance can be measured. Insights about the audience who saw the ads and content can be derived. Such data can be used to develop or improve user’s experience, systems and software.

By clicking ‘I Agree’ you will allow the use of indicated cookies, device identifiers, web beacons or other similar technologies. Your settings can be changed in the browser on your device.

For certain purposes, legitimate interests may be relied on, rather than consent. You can read more about this in our Privacy and Cookie Policy.